User: anonymous   Login
Location: Greenwich
(51.4790°N, 0.0090°E)
Time: 13:12:30
(UTC+00:00)
Language:

Hubble Space Telescope - Orbit

View from above orbital plane
View from above orbital plane
View from above satellite
View from above satellite

Ground track
Ground track

The orbit data is extracted from the following two-line orbital elements,

1 20580U 90037B   22342.03249620  .00003374  00000-0  18429-3 0  9997
2 20580  28.4698  98.0331 0002861 108.4902  54.6208 15.11363240592769
Epoch (UTC): 08 December 2022 00:46:47
Eccentricity: 0.0002861
inclination: 28.4698°
perigee height: 530 km
apogee height: 534 km
right ascension of ascending node: 98.0331°
argument of perigee: 108.4902°
revolutions per day: 15.11363240
mean anomaly at epoch: 54.6208°
orbit number at epoch: 59276

The dashed part of the orbit path shows where the satellite is in the earth's shadow,  

DLR